Location: Arthurs Seat
(13.1500°N, 59.6000°W)
Time: 20:06:59
(UTC+00:00)

CZ-2D R/B - Pass Details

Date: 25 August 2019
Orbit: 523 x 538 km, 97.4° (Epoch: 13 October)

Event Time Altitude Azimuth Distance (km) Brightness Sun altitude
Rises 22:49:21 0° 156° (SSE) 2,675 6.5 -9.3°
Reaches altitude 10° 22:51:33 10° 148° (SSE) 1,783 5.5 -9.8°
Maximum altitude 22:55:11 41° 78° (ENE) 782 3.7 -10.6°
Drops below altitude 10° 22:58:48 10° 7° (N) 1,777 6.0 -11.5°
Sets 23:00:59 0° 360° (N) 2,664 7.0 -12.0°
